2001 CA32 

Epoch 2001 Feb. 20.0 TT = JDT 2451960.5                 Nakano

M  10.91949              (2000.0)            P               Q

n   0.29684630     Peri.  124.26559     -0.47436727     -0.87940094

a   2.2256060      Node   353.64338     +0.63902899     -0.31244007

e   0.4701997      Incl.   21.38415     +0.60548959     -0.35921469

P   3.32           H   18.6           G   0.15           U   *

Residuals in seconds of arc 

010205 704  0.0   0.2+    010213 704  0.0   0.4+    010216 118  0.4+  0.2-  

010205 704  0.3-  0.0     010214 557  0.0   0.9-    010216 118  0.5+  1.0-  

010205 704  0.2+  0.2-    010214 557  0.2+  0.5+    010217 118  0.0   0.2+  

010205 704  0.1+  0.2+    010214 557  0.6-  0.2-    010217 118  0.4+  0.5+  

010213 704  0.0   0.5-    010214 557  0.4-  0.5+    010217 118  0.2-  0.2+  

010213 704  0.4+  0.4+    010214 557  0.4-  0.3+    010219 360  0.2-  0.0   

010213 704  0.2+  0.1-    010214 557  0.3-  0.4+    010219 360  0.2-  0.0   

010213 704  0.3-  0.2-    010216 118  0.6+  0.6-    010219 360  0.2-  0.1+  

  

NAKANO

         **** Don't distribute anyone except personal use only ****

                (C) Copyright 2001 OAA/ComputingSection

write mail from CFAD0::NAKANO on 2001-02-21 04:08:41(JST).

 







–ß‚è‚Ü‚·B